Wind_Speed
44 46 48 49 48 48 48 47 47 47 47 49 50 52 52 52 51 51 51 49 48 50 50 48 45 43 40 40 42 46 51 52 53 54 54 56 58 61 64 66 66 66 64 63 63 64 65 65 66 68 70 72 74 75 77 80 80 79 78 79 79 77 77 77 75 76 78 77 71 67 63 56 48 44 46 50 52 51 52 59 69 76 80 83 84
45 47 48 49 49 49 48 48 49 49 49 51 52 53 53 52 52 52 52 49 48 49 51 49 45 42 41 42 44 47 50 52 53 54 55 57 60 63 66 66 66 66 65 65 66 67 67 68 70 73 75 77 78 80 82 82 81 79 79 78 76 76 76 76 75 74 74 74 71 67 64 58 51 47 47 50 52 53 52 54 63 72 77 81 84
47 48 48 49 49 48 48 50 51 52 52 53 54 55 54 54 53 52 52 50 48 50 52 48 43 41 42 43 43 46 51 53 54 55 56 58 62 65 67 67 67 67 67 68 69 71 72 74 75 77 79 82 83 84 84 83 80 78 78 76 75 76 77 76 75 73 71 71 70 67 62 57 54 50 49 50 52 54 53 52 55 64 74 79 82
49 50 49 49 48 47 48 51 54 55 55 55 56 56 55 55 54 52 50 48 47 50 50 46 42 41 41 42 43 47 52 54 55 57 58 61 65 67 68 68 68 68 69 71 72 73 75 77 78 81 83 85 86 86 85 82 80 79 78 78 78 78 79 78 75 70 68 69 69 66 61 56 55 54 51 50 52 54 54 53 51 56 67 76 80
51 52 50 48 47 48 50 53 56 57 57 57 57 57 57 56 54 52 48 44 45 48 46 42 40 40 41 42 45 49 53 54 56 59 62 65 67 68 68 68 68 70 71 72 74 76 78 80 82 84 86 87 88 87 85 83 81 81 80 81 81 80 79 76 72 67 66 67 66 63 60 57 56 56 54 52 52 54 54 53 51 51 60 70 77
53 54 52 50 50 52 54 54 56 57 58 59 57 57 56 56 54 50 46 43 44 44 44 43 44 44 43 44 46 49 53 55 59 63 66 68 68 68 68 69 70 72 73 76 78 80 82 84 86 87 88 89 89 87 84 83 82 83 83 82 81 79 76 72 68 67 66 65 62 59 58 58 58 56 55 53 51 53 53 52 51 50 54 62 71
55 55 54 52 52 55 56 56 56 57 58 58 57 56 55 54 51 48 45 46 46 47 51 51 49 48 45 44 46 51 56 60 63 66 68 69 70 71 72 73 75 76 78 81 83 85 87 88 89 90 89 89 88 86 84 84 85 85 83 80 77 74 71 69 68 67 66 64 60 57 57 58 59 56 54 53 51 51 51 51 51 49 49 55 64
57 57 57 55 54 56 57 56 55 55 54 55 55 54 52 51 50 48 46 47 50 57 61 56 51 49 46 46 52 59 63 67 69 71 72 73 74 75 76 78 80 82 84 85 87 89 90 91 91 90 88 87 86 85 86 87 87 85 80 76 73 70 69 69 69 69 67 64 61 58 58 58 58 55 53 52 51 49 49 50 50 49 48 51 58
58 59 59 57 56 57 57 55 52 50 49 50 52 53 50 50 51 50 46 45 48 53 55 51 50 50 51 55 62 66 69 72 74 75 77 78 79 80 81 83 85 86 87 89 90 91 91 91 91 89 88 87 86 87 89 90 86 80 75 72 70 70 71 72 72 71 68 65 62 61 59 58 56 54 52 50 49 48 49 49 50 49 48 49 55
60 61 60 59 57 57 56 53 50 46 42 42 49 52 50 48 49 49 45 40 39 41 43 46 51 55 59 65 70 71 74 76 78 79 80 81 82 83 85 87 88 89 90 91 92 92 92 93 92 91 90 88 88 90 93 89 81 74 71 71 72 73 75 76 75 72 69 66 65 63 60 57 55 52 50 48 46 47 48 48 49 50 49 49 52
62 62 61 60 58 56 56 54 51 47 40 38 44 48 48 48 49 50 48 39 35 40 46 52 58 64 68 71 73 75 77 78 80 82 83 84 85 86 88 89 90 91 92 92 93 94 94 94 93 91 90 90 91 94 92 84 76 71 71 74 77 79 79 80 78 74 70 68 67 64 60 56 53 51 48 45 44 46 47 47 48 49 49 48 50
63 63 62 60 57 56 56 55 53 51 46 42 43 42 44 48 49 50 49 42 39 45 52 58 63 67 70 72 75 78 80 81 83 84 85 86 86 87 89 91 92 93 94 94 95 95 94 92 90 89 91 93 94 93 87 79 74 74 76 79 83 84 83 82 79 75 72 70 68 66 61 55 52 49 47 44 42 43 45 46 47 48 48 47 49
64 63 61 59 57 56 57 57 56 55 53 50 48 45 46 49 47 47 49 48 47 51 55 59 64 68 71 74 77 80 82 83 84 85 86 86 87 89 91 92 93 95 96 96 95 94 91 88 86 88 92 94 93 87 80 76 76 78 81 85 87 87 86 83 80 76 73 71 69 66 61 55 51 48 47 44 41 41 43 45 46 47 47 48 50
64 62 59 57 56 56 57 59 59 59 58 57 55 52 51 51 48 46 50 53 52 53 58 63 68 72 75 78 80 82 82 83 84 86 87 87 89 91 92 93 94 95 96 95 93 90 87 85 86 90 94 92 87 80 77 78 79 82 86 88 89 88 86 84 81 78 75 72 69 66 60 55 51 47 46 45 42 40 41 44 46 45 47 49 50
66 62 58 57 57 57 59 60 61 61 61 61 61 58 56 55 51 48 52 56 55 57 63 68 73 76 78 80 82 83 85 86 87 88 89 90 91 92 91 91 91 91 92 92 88 84 83 85 89 93 94 89 83 79 80 81 83 86 88 90 90 88 87 85 82 79 76 73 68 64 58 53 50 47 44 44 43 41 39 42 45 45 46 49 50
67 63 60 59 59 60 61 63 63 64 64 65 65 63 60 60 57 54 56 58 59 61 66 70 75 78 80 82 84 86 87 88 89 89 90 89 89 89 89 88 87 88 89 86 81 80 83 88 92 93 91 86 83 82 84 85 87 89 90 91 90 89 88 86 84 81 77 72 67 61 56 51 50 47 43 42 42 41 40 41 43 44 46 49 50
67 65 64 63 63 63 64 65 65 66 67 67 67 65 63 62 60 58 57 59 60 63 66 70 73 76 78 80 82 84 86 88 89 89 89 89 89 87 87 87 85 82 79 78 80 85 89 92 93 92 88 85 85 86 87 89 90 91 91 90 90 89 88 87 85 82 77 71 65 59 54 50 49 46 43 41 40 40 41 41 42 43 45 48 50
66 66 67 67 67 68 67 68 68 68 68 69 68 67 65 63 60 58 58 58 59 62 65 68 71 73 75 77 80 82 85 87 89 89 89 89 87 85 84 84 80 74 74 79 86 89 91 93 92 90 88 87 88 89 90 91 92 91 91 90 89 89 88 88 85 81 76 70 64 58 52 49 47 45 42 40 39 39 41 41 41 42 44 47 49
66 67 68 70 71 71 71 71 70 69 69 71 70 68 66 62 58 56 55 56 58 60 63 66 69 72 75 78 81 82 84 87 88 86 84 83 81 78 79 79 78 78 82 86 89 90 91 92 92 91 91 91 91 91 93 94 95 93 91 90 89 89 89 88 85 80 75 70 63 56 51 46 45 43 41 39 37 38 39 40 41 41 43 46 48
68 69 70 73 74 74 74 73 73 72 71 72 71 68 66 62 56 51 52 55 57 59 62 65 68 72 75 77 79 80 82 83 80 74 73 75 76 76 78 80 82 85 88 89 90 92 92 91 91 92 92 91 90 92 95 96 96 93 91 90 90 90 89 87 84 79 75 69 63 57 50 44 42 40 39 38 37 37 37 38 39 40 42 44 46
70 71 73 75 76 76 76 75 74 74 73 72 72 69 66 60 55 52 53 56 58 60 63 66 69 71 73 75 76 77 78 76 69 66 70 75 77 79 81 82 83 85 88 90 91 92 92 93 93 92 91 91 93 95 96 95 93 92 91 92 92 90 89 86 83 79 73 67 62 57 49 43 39 37 36 37 36 35 35 35 37 38 40 42 44
73 74 75 77 78 78 77 76 75 74 73 72 71 68 65 61 59 59 59 60 62 64 66 67 70 71 73 74 75 76 75 72 68 69 74 78 80 81 81 82 83 86 89 91 92 93 94 94 94 93 94 96 97 97 95 93 92 92 93 94 92 90 88 85 81 77 72 66 60 55 48 42 38 35 33 33 34 33 33 34 35 36 38 39 41
75 76 77 78 78 77 76 76 75 75 73 71 69 67 65 62 62 63 63 63 64 65 64 65 68 70 70 71 73 73 71 71 71 72 74 77 79 81 83 86 89 92 93 95 96 96 95 94 95 96 97 97 97 95 94 93 93 95 95 95 93 90 87 83 80 75 69 64 58 52 46 40 37 34 31 30 31 31 32 32 33 35 36 36 38
77 78 78 77 76 75 76 76 76 75 73 71 70 69 67 64 64 66 67 67 66 66 65 65 66 67 67 68 68 67 67 69 70 71 74 77 80 83 87 90 93 95 97 98 98 97 97 98 99 99 97 95 94 93 93 94 96 97 97 96 93 90 85 81 77 72 66 61 54 48 43 39 36 33 30 28 29 30 30 30 31 33 33 33 35
78 78 76 75 75 75 76 77 76 75 74 74 74 73 71 69 69 69 69 68 67 67 66 65 65 65 64 61 61 63 67 71 73 74 77 80 83 85 88 91 92 94 96 97 98 99 100 99 98 96 94 93 93 93 95 97 98 98 97 95 92 88 83 78 73 68 62 57 50 45 40 36 34 32 28 26 27 29 29 29 29 30 31 31 31
76 75 74 76 77 77 77 76 76 75 75 75 76 75 75 74 73 72 70 69 68 68 67 64 64 63 58 56 59 65 69 72 75 77 79 82 84 87 89 91 93 95 97 98 99 99 97 94 92 92 92 93 95 97 98 99 99 99 96 93 89 84 79 74 69 63 57 52 46 42 38 35 33 30 27 25 26 27 27 27 27 27 28 28 29
74 74 75 76 77 77 77 76 75 75 75 76 76 77 77 77 75 74 73 71 70 69 66 62 61 61 58 60 65 69 72 76 79 80 81 82 85 87 89 91 93 95 97 96 94 92 90 89 90 92 94 96 98 100 101 101 100 97 94 90 85 79 73 69 63 57 51 47 43 39 36 33 31 29 26 25 25 26 25 25 25 24 25 25 26
74 74 75 75 76 76 76 75 75 76 76 77 78 78 79 80 79 77 74 71 68 66 62 59 60 63 65 69 73 76 78 82 83 83 83 84 86 87 89 90 91 91 90 88 86 86 87 89 92 95 97 100 101 102 102 100 98 95 91 85 79 73 68 63 57 50 46 43 40 37 34 32 30 28 24 24 25 25 23 23 23 22 23 23 24
73 74 75 75 75 75 75 75 76 77 77 78 80 80 81 81 77 69 63 61 61 61 62 65 68 70 72 75 77 78 80 83 84 85 85 85 86 86 86 86 85 83 83 83 85 87 89 92 95 98 100 102 102 102 100 98 94 90 84 77 72 67 62 57 51 45 42 41 39 36 32 30 29 27 23 23 24 24 22 22 21 21 21 21 22
74 75 76 76 75 74 75 76 77 78 79 80 81 82 82 78 69 62 62 64 66 68 71 74 75 75 76 77 78 79 81 82 82 83 83 84 85 84 82 81 80 81 82 85 87 90 93 96 99 101 102 102 101 99 96 92 88 81 75 70 66 62 57 52 47 42 40 39 37 35 31 29 28 26 23 23 23 22 21 21 21 20 20 20 21
76 77 78 77 75 75 76 77 79 80 80 81 82 83 83 79 74 72 73 75 75 76 77 77 78 78 78 79 80 80 80 79 79 80 82 83 83 81 80 80 81 82 85 87 90 93 96 98 100 101 101 100 98 94 90 85 78 73 68 65 61 57 52 48 43 40 39 37 36 33 30 28 27 26 23 23 23 22 21 21 20 19 19 19 20
78 79 79 78 77 77 78 79 79 80 80 80 81 81 80 79 78 78 78 77 78 78 78 79 80 80 80 80 79 77 77 77 79 81 81 81 80 79 80 81 83 85 88 91 93 96 98 99 100 99 98 95 92 87 82 76 71 67 63 59 56 52 49 45 41 39 38 36 34 32 29 27 27 25 23 23 23 22 21 20 19 18 18 18 19
80 80 80 80 80 80 80 80 80 80 79 79 79 79 78 78 78 79 79 79 79 79 80 81 82 81 79 77 76 76 77 79 79 78 77 77 78 79 82 84 87 89 91 93 95 97 98 98 97 95 92 88 84 79 74 69 65 61 57 54 51 48 45 42 39 38 37 35 33 30 28 26 27 26 24 23 23 22 21 20 19 17 17 17 17
80 81 81 82 82 82 82 82 81 81 80 80 79 78 78 77 78 79 80 80 80 81 82 82 80 78 77 76 77 77 77 77 76 75 75 77 79 82 85 88 90 92 93 95 96 96 95 94 91 88 85 81 76 72 67 63 58 55 52 50 47 44 41 39 37 36 36 34 32 29 27 26 27 26 24 23 23 22 21 20 18 17 17 16 15
81 82 83 84 84 84 84 84 83 82 82 81 80 80 80 80 81 82 82 82 82 82 81 79 78 77 77 77 77 76 74 73 74 75 77 79 82 85 88 90 92 93 94 94 93 91 90 88 85 82 78 74 69 65 61 57 53 50 48 46 44 41 39 37 36 35 34 33 31 28 26 26 27 27 25 24 23 22 22 20 18 17 17 16 14
83 84 85 85 85 85 85 85 84 84 83 83 83 83 83 83 84 84 83 82 81 80 79 78 78 78 76 75 74 73 73 74 76 78 80 83 86 88 91 92 93 93 91 89 87 86 84 82 79 76 72 68 64 60 56 52 50 48 46 44 42 40 38 36 34 34 33 32 30 28 26 26 28 28 27 25 24 23 23 21 19 18 17 16 14
85 86 87 87 87 87 87 86 86 85 85 84 84 84 84 84 83 83 82 80 79 78 78 77 76 74 73 73 73 74 76 78 80 82 84 86 88 90 92 92 91 89 87 85 83 80 78 76 73 71 68 64 60 56 53 50 49 47 45 43 41 39 37 34 32 32 32 30 28 27 26 26 28 29 28 26 25 25 24 22 20 19 18 16 15
86 87 88 88 87 87 86 86 86 86 86 85 85 84 83 82 81 80 79 78 77 76 75 73 72 73 73 74 76 78 80 82 84 86 88 89 90 91 91 90 88 85 83 80 77 74 73 71 69 66 63 59 56 53 51 49 48 46 43 41 39 38 35 33 30 30 30 29 27 26 26 27 29 31 30 28 27 26 26 24 22 20 19 17 16
87 87 87 87 86 86 86 85 85 85 85 84 83 82 81 79 78 76 75 74 74 74 73 73 74 75 76 78 80 82 84 86 87 89 89 90 90 90 89 87 84 80 77 74 71 69 68 67 64 61 57 54 51 50 49 47 46 44 42 40 38 36 34 32 29 28 28 28 27 26 26 27 30 32 32 30 29 28 27 25 23 22 20 18 18
86 86 86 86 86 86 85 85 84 83 82 81 80 78 76 75 73 73 72 73 73 74 75 76 78 79 80 82 83 85 87 88 89 89 89 89 89 87 85 82 78 74 71 68 66 64 63 61 58 55 52 49 48 47 46 44 43 41 39 37 36 34 33 31 29 28 27 27 27 26 26 28 31 33 34 33 31 30 29 27 25 23 21 19 20
86 86 86 85 85 84 83 82 81 80 79 77 76 74 73 72 72 73 74 75 76 78 79 81 82 83 84 85 87 88 88 89 89 89 88 87 85 83 79 75 71 68 65 63 61 59 57 55 54 52 49 47 46 44 43 42 40 38 37 35 34 33 32 31 30 29 28 27 27 27 27 28 31 34 36 35 33 32 31 29 27 25 23 21 22
84 84 83 82 81 80 79 78 77 76 75 74 74 74 74 74 75 76 78 78 80 82 84 85 86 87 87 88 88 88 88 88 87 87 85 83 80 76 72 69 66 63 61 58 56 54 52 51 50 49 47 46 44 43 41 39 38 36 34 33 31 31 30 30 30 29 28 28 28 28 27 28 31 35 38 37 35 34 33 31 29 27 25 23 24
81 80 79 77 76 76 76 75 75 75 75 75 76 77 78 79 80 81 82 83 85 86 87 88 88 88 88 88 87 87 87 86 85 83 81 78 74 69 66 63 60 58 56 54 52 50 48 48 47 46 45 43 42 41 38 37 35 34 32 31 29 29 28 28 29 29 29 28 28 29 28 29 31 35 39 39 38 36 35 33 31 29 27 25 26
76 75 74 73 74 74 75 75 76 76 77 78 80 81 82 83 84 85 85 87 88 88 88 88 88 88 87 86 85 84 84 83 81 79 76 71 67 63 60 58 56 54 52 51 49 48 46 45 45 43 42 41 40 38 36 35 33 31 30 29 28 26 26 27 27 28 28 28 28 29 29 29 31 35 39 41 40 38 37 36 33 31 29 27 28
74 73 73 74 75 76 77 78 78 79 81 82 83 85 86 87 88 88 88 88 89 88 87 87 87 86 86 84 82 81 80 79 76 73 68 64 61 58 56 53 51 50 49 48 48 46 45 44 43 41 39 38 37 35 34 33 31 30 29 27 26 25 25 25 25 26 26 26 27 28 29 30 31 34 39 43 42 40 39 38 36 34 32 30 30
75 75 76 77 79 80 81 82 83 84 85 86 87 88 88 89 90 90 89 89 88 88 86 85 84 84 83 82 80 78 76 73 69 65 61 58 56 54 51 49 48 47 46 46 45 45 44 43 41 39 37 36 35 33 32 31 30 29 28 26 25 24 23 23 23 23 24 24 25 26 28 30 31 33 38 43 44 42 41 40 38 37 35 33 32
76 78 79 80 82 83 85 87 88 89 90 90 90 90 90 90 90 89 88 88 87 85 84 82 81 80 78 76 74 72 68 65 61 58 56 54 52 50 48 47 46 45 44 43 43 42 42 42 40 38 36 35 34 32 31 30 29 28 26 25 24 23 22 21 20 20 21 21 22 23 25 28 30 32 36 42 45 44 43 42 40 39 38 35 35
79 80 82 83 85 86 88 89 90 91 91 92 92 92 91 90 88 87 85 84 82 80 79 77 75 73 71 69 66 63 60 58 56 54 52 51 49 47 46 45 45 44 43 41 41 40 40 40 38 36 35 34 33 31 30 29 28 27 25 24 23 22 21 20 19 18 18 19 20 21 23 25 28 31 34 40 44 45 44 44 43 42 40 38 38
82 83 85 86 88 89 89 90 91 91 91 91 90 89 88 86 83 81 79 77 75 73 71 69 67 65 63 60 58 56 54 53 51 50 49 48 46 45 44 44 44 44 42 41 40 40 39 38 37 35 33 33 32 31 30 28 27 26 25 23 22 21 21 20 18 17 17 17 18 19 20 22 26 28 31 37 43 46 46 45 45 44 43 41 40
85 86 87 89 89 90 90 90 90 90 88 87 85 83 80 78 75 72 70 67 65 63 62 60 58 57 55 53 52 51 50 49 48 47 47 47 46 45 44 43 43 43 42 41 40 40 38 37 35 33 32 32 31 30 29 28 27 26 24 23 21 21 21 20 19 17 17 17 16 16 17 19 22 26 29 34 40 45 47 46 46 46 45 44 43
87 88 89 89 90 90 89 88 87 85 82 80 77 73 70 67 64 62 60 58 57 56 55 53 52 51 50 50 49 48 47 47 46 46 47 47 46 45 44 43 42 42 41 41 40 40 38 37 35 33 32 31 31 30 29 28 26 25 24 22 21 21 21 20 19 17 17 16 16 15 16 16 18 22 26 30 36 42 47 48 47 47 47 47 45
Wind_Direction
307 306 305 305 306 308 311 312 312 312 312 313 314 315 318 320 320 321 323 324 322 318 314 311 309 306 302 297 295 298 302 302 303 303 305 307 309 310 312 313 313 313 313 313 312 312 313 313 314 314 315 316 317 317 318 318 319 320 319 319 319 319 318 318 317 316 314 313 312 310 309 305 293 279 270 265 261 257 250 245 242 240 236 233 230
304 303 303 303 305 308 309 308 308 310 311 312 313 315 318 318 319 320 323 323 320 316 313 310 307 304 300 298 298 301 302 300 301 303 305 308 308 309 311 313 313 312 312 311 311 311 311 312 313 314 315 317 318 318 318 319 319 319 319 319 318 317 316 316 316 315 313 311 310 309 308 303 295 284 276 271 266 261 255 247 242 241 239 235 232
300 300 300 302 306 308 307 305 307 309 310 312 314 315 316 317 318 320 322 321 317 314 311 306 302 300 298 298 301 301 298 298 301 304 306 307 307 309 310 311 311 311 310 309 309 309 310 311 312 314 315 316 317 318 318 319 319 319 319 318 316 315 315 315 314 313 311 310 309 308 306 302 295 287 279 275 271 266 260 252 244 240 239 237 233
297 297 299 303 306 305 302 303 306 308 309 312 313 313 314 315 316 318 319 318 314 312 308 301 298 299 298 297 295 293 295 300 304 306 307 307 307 308 309 309 309 308 308 308 307 308 309 310 311 313 315 316 317 318 319 319 318 318 317 315 314 313 313 313 312 311 311 311 309 308 305 301 295 289 282 277 273 268 263 257 249 240 238 238 235
294 296 299 303 303 301 299 301 304 307 309 311 312 311 312 314 315 315 315 314 315 315 309 300 297 298 295 292 291 293 299 304 306 306 305 305 306 306 307 307 307 307 307 307 307 307 308 310 312 314 315 317 318 318 318 317 317 316 314 314 313 312 312 312 312 311 311 312 310 307 304 300 295 289 284 279 274 269 264 260 254 245 237 236 236
294 296 299 301 301 299 299 301 304 307 309 310 310 310 312 313 313 313 312 311 315 317 310 299 295 296 295 293 295 299 302 304 303 303 304 304 304 304 304 305 305 306 306 307 307 308 309 311 313 314 316 316 317 317 316 316 315 314 313 312 312 311 311 311 311 311 312 313 311 307 303 299 295 290 284 279 274 269 265 261 257 249 239 234 234
294 296 297 299 299 299 299 302 305 308 308 309 309 309 310 311 310 310 311 310 310 312 310 300 293 294 295 292 294 298 300 302 303 304 305 305 304 303 304 304 305 307 307 308 309 309 310 312 313 314 315 316 316 315 315 315 314 313 312 311 311 311 311 312 312 313 314 313 311 307 303 299 296 291 285 280 275 270 265 262 257 251 242 235 232
293 295 296 298 299 299 301 304 306 307 307 309 309 308 308 308 308 308 308 308 307 308 308 300 289 289 291 290 293 295 298 302 304 305 305 304 303 304 304 306 307 308 308 308 309 310 311 311 312 313 314 315 315 314 314 313 313 312 311 311 310 311 312 314 316 316 316 314 311 308 305 301 297 293 286 280 275 270 265 261 257 251 244 237 232
293 294 296 298 300 301 302 304 305 306 309 311 307 305 306 305 305 305 303 306 308 307 303 295 287 288 290 291 293 295 297 301 303 304 304 303 303 304 305 306 307 307 307 307 308 309 310 310 311 312 313 313 313 313 313 313 312 311 310 310 311 313 316 318 319 318 316 315 313 310 307 303 299 294 287 280 275 271 265 260 256 252 245 238 233
294 295 297 298 300 301 302 302 303 305 309 308 301 301 304 303 302 301 300 306 311 304 297 292 289 289 289 290 292 294 296 299 301 302 303 303 303 304 304 304 304 304 305 306 306 307 308 309 310 311 311 312 312 312 313 312 311 310 311 313 315 318 319 320 319 318 317 316 314 312 309 305 301 294 288 281 275 270 265 260 256 252 246 240 234
295 296 297 299 301 302 301 301 301 302 303 299 294 299 303 301 298 296 295 298 299 292 289 289 287 286 287 289 291 294 296 297 299 300 300 301 303 303 302 302 302 303 304 305 306 307 308 309 310 310 311 311 311 312 311 310 310 312 315 318 319 320 320 320 319 318 317 317 316 313 310 307 303 296 288 281 275 269 264 259 256 253 248 243 238
294 295 297 299 301 301 300 299 300 300 300 297 295 297 297 293 291 290 288 285 281 280 282 282 283 284 286 287 290 293 294 296 297 298 298 300 301 301 300 301 302 303 303 305 306 306 307 309 310 311 311 311 311 310 310 310 312 316 319 320 320 319 319 319 318 318 318 318 317 314 311 308 304 297 289 282 275 269 264 259 255 252 249 245 241
294 295 297 299 299 299 298 298 299 299 299 298 297 295 293 290 289 289 286 280 277 276 276 277 280 282 284 286 289 291 293 294 295 296 297 298 299 299 300 301 302 302 303 304 305 305 307 309 309 309 310 310 309 309 310 312 316 319 320 319 319 319 318 318 318 318 319 319 318 315 312 309 305 298 290 283 276 269 264 259 255 252 249 246 241
293 294 296 297 297 296 296 297 298 298 299 299 298 296 295 293 291 289 286 282 279 276 272 274 278 281 284 286 289 290 292 294 295 295 296 297 298 299 299 300 301 301 302 302 303 304 306 307 307 309 310 310 310 311 313 316 318 319 318 318 317 318 318 318 317 318 319 319 318 316 313 309 305 298 291 285 278 270 264 260 256 251 248 246 242
293 294 295 295 294 294 295 296 297 298 298 298 298 297 296 294 291 287 283 281 277 273 272 275 279 282 284 287 289 290 292 293 294 295 295 296 297 298 299 300 300 301 301 302 303 303 304 305 307 309 310 311 313 315 317 318 318 318 317 316 317 317 317 317 317 318 319 318 317 315 312 309 304 298 291 285 280 273 266 260 256 252 247 246 242
293 295 295 294 293 294 295 296 296 297 297 297 297 297 296 295 292 289 284 280 277 275 275 276 279 281 284 286 288 289 290 291 292 293 294 295 297 298 299 300 301 302 302 302 303 303 304 307 309 309 310 313 316 318 318 318 317 316 316 316 316 316 316 316 316 318 318 317 316 314 312 309 303 297 290 285 280 275 269 260 255 252 248 245 242
293 295 294 294 295 295 295 295 296 296 296 296 296 296 296 295 293 290 286 282 280 279 278 279 279 281 283 285 287 288 290 291 291 292 294 295 297 298 299 300 301 303 303 303 304 305 307 308 309 309 311 315 317 318 317 316 315 315 315 316 316 315 315 315 316 317 316 316 316 313 311 308 303 296 291 285 279 274 269 262 255 252 248 245 242
292 293 294 295 296 295 295 295 295 296 295 295 295 296 296 295 294 292 287 283 279 278 279 280 282 283 284 286 287 289 290 291 292 294 296 296 297 298 298 299 300 300 299 301 304 306 307 307 308 310 314 316 317 316 315 314 314 314 315 315 315 314 314 314 315 315 316 316 314 312 311 308 301 296 290 284 278 271 267 262 256 251 247 244 242
290 292 293 294 294 294 294 294 295 296 296 295 296 297 296 295 294 291 286 281 278 278 279 281 282 284 284 284 286 288 290 291 293 296 296 295 295 296 296 297 298 298 299 302 305 306 306 307 311 314 316 316 316 315 313 313 313 314 314 315 314 313 313 314 314 314 315 315 313 311 309 306 300 295 289 283 275 269 264 261 257 252 247 243 241
289 290 291 291 292 293 294 295 296 296 296 296 296 296 296 296 293 288 283 281 280 281 282 282 283 284 284 285 286 288 290 292 295 296 295 294 294 294 296 298 299 300 302 303 304 305 307 311 313 314 314 314 313 311 310 310 311 312 313 313 313 313 313 313 313 314 314 314 312 310 308 304 298 292 287 280 273 267 262 258 255 252 248 244 241
288 289 290 291 292 293 294 295 295 296 296 296 296 296 296 294 290 286 284 283 283 284 284 284 284 285 286 288 289 289 290 292 293 292 292 293 294 295 297 298 300 302 303 304 306 308 311 313 314 313 312 311 309 308 308 309 311 312 313 312 312 312 312 312 312 313 313 312 310 308 306 302 295 289 282 277 271 265 260 256 253 250 247 246 243
287 288 289 291 292 293 294 294 294 295 295 295 295 295 295 293 290 288 286 284 283 284 283 282 283 284 286 288 288 288 289 290 288 287 290 293 295 297 298 300 302 303 305 307 309 312 313 313 312 311 309 307 307 308 309 309 310 311 311 311 311 312 312 312 312 311 311 310 308 306 304 300 294 287 279 272 268 264 259 254 251 248 245 244 244
287 289 290 291 292 292 293 293 294 294 295 295 294 294 294 293 291 290 289 288 288 288 287 286 286 287 289 290 290 290 290 290 289 290 293 297 300 302 303 305 306 307 308 310 312 313 312 311 309 307 306 306 307 308 308 309 309 310 310 310 311 311 311 311 310 310 309 308 306 304 302 297 291 285 276 269 265 261 256 252 249 246 243 241 242
289 289 290 290 291 291 292 292 293 293 293 293 292 292 293 293 292 293 295 296 296 296 295 294 294 294 294 294 294 296 296 296 297 298 299 302 304 305 306 307 308 309 310 311 311 311 309 307 306 305 306 307 307 307 307 308 308 308 309 310 310 311 311 310 309 308 307 306 303 301 299 294 288 282 274 267 262 258 253 250 247 245 242 238 237
289 289 289 290 290 291 292 292 293 293 293 293 294 294 295 295 295 297 298 298 297 296 295 295 296 298 297 297 298 301 302 303 304 304 304 305 306 305 306 307 307 307 307 307 307 306 304 304 304 305 306 306 306 306 306 307 307 308 309 309 310 310 309 308 307 306 305 303 301 299 296 291 285 279 272 265 259 255 250 247 244 243 242 237 234
288 289 290 291 291 292 293 293 294 294 295 295 296 296 297 297 297 297 297 296 294 294 293 296 299 300 298 298 301 302 303 304 304 304 303 303 303 303 304 304 304 303 303 303 302 302 302 303 304 304 304 305 305 306 306 306 307 307 308 309 309 308 308 306 305 304 303 300 298 296 293 288 282 276 270 263 257 252 248 245 242 240 239 237 234
287 289 290 291 292 292 293 293 294 294 294 294 294 295 296 297 297 297 297 296 295 295 295 297 299 299 296 297 301 302 301 302 302 301 300 300 300 300 300 300 299 299 299 300 301 302 303 303 303 303 304 304 305 305 305 306 306 307 307 308 307 307 306 304 303 302 301 298 296 293 289 284 278 272 266 259 254 249 247 245 241 236 235 236 234
287 289 291 291 291 292 292 292 292 293 293 292 293 293 295 296 297 298 298 297 296 295 294 294 296 297 295 296 298 299 299 299 299 298 298 298 298 298 297 297 297 297 299 300 301 302 303 303 303 303 303 303 303 304 304 305 306 306 306 306 305 305 304 303 301 300 298 295 293 291 286 280 274 268 261 254 250 246 245 244 240 235 232 233 235
288 290 290 290 290 290 290 291 291 291 291 291 292 293 295 297 298 298 296 293 291 290 290 292 295 296 295 294 295 296 296 297 297 297 298 298 298 298 297 298 298 299 300 301 302 302 302 302 302 302 302 302 303 303 304 305 305 305 305 304 304 303 302 301 300 298 296 293 291 288 283 276 270 264 256 248 244 242 241 240 238 234 230 229 234
288 289 289 289 289 289 289 289 289 290 290 291 291 292 293 295 293 290 288 287 287 288 291 293 295 295 295 295 295 295 296 297 297 297 298 298 298 299 300 300 301 301 302 302 302 302 302 301 301 301 301 302 302 303 304 304 304 303 303 303 303 302 301 300 298 296 293 290 288 285 279 272 266 260 251 243 239 238 238 237 235 233 230 229 232
288 288 288 288 288 288 288 287 288 288 289 289 289 290 290 290 289 288 288 289 289 291 293 294 295 296 296 296 296 296 297 296 296 297 297 298 299 300 301 301 301 301 301 301 301 301 301 300 301 301 301 302 302 303 303 303 302 302 302 302 302 300 299 298 296 293 290 288 285 281 275 268 261 255 247 238 233 233 235 235 233 232 233 232 232
286 286 286 286 286 286 286 286 286 287 287 287 288 288 288 289 290 290 291 291 292 293 295 295 296 297 297 297 296 296 296 296 297 298 298 299 299 300 300 301 301 301 301 301 301 301 301 301 301 301 301 301 302 302 302 302 301 301 301 300 300 298 296 295 293 291 288 286 282 277 271 263 257 251 243 235 230 229 231 233 233 233 234 235 234
284 284 285 285 286 286 287 287 287 287 287 287 287 288 288 290 291 292 293 294 295 296 296 297 297 297 297 297 296 296 297 298 299 299 299 300 300 300 300 300 300 300 300 301 301 301 301 300 300 300 301 301 301 302 302 302 301 300 299 298 297 295 293 292 290 288 286 283 278 273 266 258 252 246 238 231 227 226 228 230 231 233 233 234 234
283 284 284 285 286 287 287 288 288 288 288 289 289 290 291 292 292 293 294 295 296 297 297 297 297 296 296 296 296 297 298 299 299 299 300 300 299 299 298 299 299 300 301 301 301 300 300 300 300 300 301 301 301 302 302 302 300 299 298 297 295 293 291 289 288 286 283 279 274 268 261 253 247 241 235 228 223 223 225 227 229 232 233 232 232
284 284 285 286 287 287 288 288 289 289 290 291 291 292 292 293 294 295 295 296 296 296 296 295 295 295 295 296 297 298 298 299 299 300 299 299 298 298 298 299 299 300 300 301 301 300 300 300 300 301 301 301 302 302 302 301 299 298 297 296 294 292 290 289 287 284 280 275 271 264 257 248 242 236 231 225 220 220 223 225 227 232 233 230 226
285 285 286 286 287 288 288 288 289 289 290 291 291 292 293 293 294 294 294 295 295 294 294 294 294 295 296 297 298 298 299 299 299 299 298 298 298 298 298 299 299 300 301 301 301 301 301 301 301 301 301 301 302 302 301 300 298 296 296 295 293 292 290 288 286 281 276 272 267 260 252 244 237 232 227 222 218 218 220 222 225 229 231 229 223
286 286 286 287 287 288 288 288 289 289 290 291 291 292 292 293 293 293 294 294 293 293 294 294 295 296 297 298 298 299 299 299 298 297 297 297 298 298 298 299 301 302 302 302 302 302 301 301 301 301 301 301 301 301 300 298 297 296 295 294 292 291 289 287 284 279 274 269 263 256 249 241 233 229 225 220 216 216 218 220 223 227 230 228 222
286 286 286 286 287 287 288 288 289 290 290 291 291 292 292 293 293 293 293 293 293 293 294 295 296 297 298 298 298 298 298 297 297 297 297 298 298 299 300 301 303 303 303 303 302 302 301 301 301 300 300 300 300 300 298 297 296 295 294 293 291 290 288 285 282 276 271 266 260 253 246 238 230 226 222 218 215 215 216 218 221 225 228 227 220
284 285 285 286 286 287 287 288 289 290 290 291 292 292 293 293 293 293 293 293 293 294 295 296 296 297 297 297 297 297 296 296 296 297 298 299 300 301 302 303 303 303 303 302 302 301 301 301 300 300 300 300 299 298 297 296 295 294 293 292 290 289 286 284 280 273 267 263 258 250 244 237 229 223 220 217 214 213 214 216 219 223 225 224 217
284 285 285 286 286 287 288 289 290 290 291 291 291 292 292 292 292 292 292 293 294 295 295 296 296 296 296 296 295 295 295 296 297 298 299 300 301 302 303 303 303 303 302 302 302 301 301 301 301 301 301 300 299 298 296 295 294 293 292 291 289 287 285 282 277 271 265 260 255 249 243 236 229 222 219 216 213 212 212 213 217 220 222 220 214
285 286 286 287 288 289 289 290 290 290 291 291 291 292 292 292 292 292 293 294 294 294 295 295 295 295 295 295 295 295 296 297 298 298 299 301 302 303 303 303 302 302 302 301 301 301 301 301 301 302 302 301 299 297 296 295 294 293 292 290 288 285 282 279 275 270 264 258 253 247 241 236 228 222 218 216 213 212 211 211 214 218 220 217 211
287 287 288 289 289 290 290 290 290 290 291 291 292 292 292 292 292 292 293 293 293 293 294 294 294 295 294 294 295 295 296 297 298 299 300 302 303 303 303 302 302 302 301 301 301 301 301 301 301 301 301 300 299 298 297 296 295 294 292 290 287 284 280 277 274 269 263 257 252 246 240 235 229 222 218 216 213 211 210 209 211 215 217 214 209
287 287 288 289 289 289 289 289 290 291 291 292 292 292 292 292 292 292 293 293 293 293 293 294 294 294 294 294 295 295 296 297 299 300 302 302 303 302 302 301 301 301 301 301 301 301 301 300 300 300 299 299 299 298 298 297 295 294 293 290 287 284 280 276 273 269 264 257 251 246 240 235 229 223 218 216 213 210 208 208 208 211 215 213 206
287 288 288 288 288 288 289 289 290 291 291 291 291 291 291 292 292 292 292 292 292 292 293 293 293 293 294 294 296 297 298 299 300 301 302 302 301 300 300 300 301 301 301 301 300 300 300 299 298 298 298 298 298 299 299 298 296 295 293 291 288 285 281 277 273 269 264 258 252 247 241 235 229 223 219 216 214 210 207 206 206 208 211 211 205
287 287 287 287 288 288 289 289 290 290 290 290 291 291 291 292 292 292 292 292 293 293 294 294 294 295 295 296 297 298 299 299 300 300 300 300 299 299 299 300 300 300 300 299 299 299 298 296 296 296 297 297 298 299 299 298 297 296 294 292 290 287 282 278 274 269 265 260 254 248 242 236 230 224 219 217 215 211 207 206 205 205 209 210 204
288 288 289 289 289 290 290 290 290 290 290 290 291 291 292 293 293 293 294 294 294 294 294 295 295 295 296 297 298 298 298 299 299 299 298 298 298 298 299 300 299 298 298 297 297 296 295 294 295 295 296 296 297 298 299 298 297 296 295 293 291 287 283 278 275 270 266 261 256 250 244 238 232 226 220 218 216 212 207 206 205 204 206 208 203
289 289 290 290 290 290 291 291 291 292 292 293 293 294 294 294 294 294 294 293 293 293 294 294 294 294 295 296 296 297 297 298 298 298 298 298 298 298 299 299 298 296 295 294 293 292 292 292 293 294 295 295 296 297 297 297 296 295 294 292 289 286 282 279 277 273 269 264 258 252 246 240 235 229 222 218 217 214 208 206 205 204 204 206 202
288 288 288 289 289 289 290 291 292 292 293 294 294 294 293 293 293 292 292 292 292 293 293 293 293 294 294 295 295 296 296 297 297 297 298 298 298 298 298 298 297 296 295 293 292 290 290 290 291 292 293 294 295 295 295 295 294 293 291 288 286 284 281 280 278 275 272 267 260 253 247 241 236 232 225 220 219 216 211 207 206 204 204 205 202
287 288 288 289 289 290 291 291 292 292 292 293 292 292 292 292 292 292 291 291 291 291 292 292 292 293 294 294 295 295 296 296 297 297 297 297 297 298 298 298 297 296 295 294 292 291 290 289 290 291 291 292 292 292 293 293 292 291 289 286 284 283 281 279 278 275 272 269 263 257 251 243 237 233 228 222 219 218 214 209 206 205 205 204 202
288 289 290 290 291 291 291 292 292 292 292 291 291 291 291 290 290 290 290 290 290 290 290 291 292 292 293 294 294 295 296 296 297 298 298 299 299 300 300 299 298 297 296 295 293 292 291 290 291 291 291 290 290 291 291 291 291 290 288 285 283 280 278 277 276 273 271 269 266 261 256 249 241 235 231 224 221 219 216 212 208 206 206 205 203
290 290 290 291 291 291 291 291 291 291 291 290 289 289 289 289 289 289 289 290 290 290 290 291 291 292 293 294 295 296 298 298 300 301 301 301 301 301 300 299 298 296 295 294 293 292 291 291 291 292 291 291 290 290 290 290 290 288 287 283 280 277 275 273 273 271 269 268 267 264 259 254 246 238 233 228 223 220 218 215 211 208 207 206 204
Height
10932 10929 10925 10923 10922 10922 10921 10919 10917 10914 10911 10909 10908 10907 10905 10903 10900 10897 10895 10892 10890 10887 10884 10882 10880 10878 10876 10874 10873 10871 10868 10865 10863 10860 10858 10856 10853 10850 10848 10845 10842 10839 10836 10832 10829 10826 10823 10820 10817 10813 10809 10806 10802 10797 10793 10789 10785 10780 10777 10774 10770 10767 10765 10762 10759 10752 10742 10738 10738 10736 10734 10733 10733 10734 10734 10734 10734 10736 10736 10736 10736 10739 10743 10746 10751
10927 10924 10921 10919 10918 10918 10916 10912 10911 10909 10907 10905 10903 10902 10901 10898 10895 10892 10890 10888 10885 10882 10879 10876 10874 10872 10870 10869 10867 10865 10861 10859 10857 10855 10852 10850 10847 10844 10841 10838 10835 10832 10829 10826 10822 10819 10816 10813 10809 10805 10801 10797 10793 10789 10785 10781 10776 10772 10768 10766 10762 10759 10757 10754 10751 10746 10738 10730 10728 10727 10724 10721 10721 10722 10723 10722 10723 10724 10725 10725 10726 10728 10731 10735 10739
10922 10919 10918 10916 10915 10914 10910 10905 10904 10904 10903 10902 10899 10897 10895 10892 10890 10887 10885 10882 10879 10876 10873 10870 10868 10866 10864 10862 10861 10858 10854 10852 10851 10848 10846 10844 10841 10837 10834 10831 10828 10825 10822 10819 10815 10812 10808 10805 10802 10797 10793 10789 10785 10781 10777 10772 10768 10764 10760 10758 10755 10751 10748 10745 10742 10739 10733 10724 10719 10717 10715 10711 10709 10709 10711 10712 10711 10712 10712 10713 10716 10717 10718 10722 10727
10917 10914 10914 10914 10914 10911 10906 10901 10900 10899 10898 10898 10895 10892 10889 10887 10884 10882 10880 10877 10873 10870 10867 10864 10863 10860 10858 10856 10854 10851 10848 10846 10844 10842 10839 10837 10834 10831 10827 10824 10821 10818 10815 10811 10808 10805 10801 10798 10795 10791 10786 10781 10777 10772 10768 10764 10759 10756 10752 10749 10746 10742 10738 10736 10733 10730 10725 10719 10711 10706 10704 10702 10698 10697 10699 10701 10700 10699 10700 10701 10704 10707 10707 10709 10714
10912 10910 10910 10913 10912 10908 10903 10899 10896 10894 10893 10892 10890 10886 10884 10882 10879 10876 10874 10871 10868 10864 10861 10858 10856 10854 10852 10851 10848 10844 10842 10840 10838 10836 10833 10830 10827 10824 10820 10817 10814 10811 10807 10804 10801 10798 10794 10791 10788 10784 10779 10773 10769 10764 10759 10755 10751 10747 10744 10740 10736 10732 10728 10726 10723 10720 10716 10711 10704 10697 10693 10691 10688 10685 10686 10688 10688 10687 10688 10690 10692 10695 10696 10698 10701
10906 10905 10906 10909 10908 10902 10898 10896 10894 10891 10888 10885 10883 10880 10878 10876 10873 10870 10867 10865 10862 10858 10855 10852 10850 10848 10847 10845 10843 10840 10838 10835 10833 10830 10827 10823 10820 10817 10814 10811 10808 10804 10801 10797 10794 10790 10787 10783 10779 10776 10771 10766 10761 10756 10752 10748 10744 10739 10736 10732 10727 10723 10719 10716 10713 10710 10706 10701 10696 10691 10685 10680 10677 10674 10674 10675 10676 10676 10677 10679 10680 10682 10686 10688 10691
10901 10900 10901 10903 10902 10897 10892 10892 10891 10888 10884 10879 10876 10874 10872 10870 10867 10865 10862 10859 10856 10853 10851 10847 10844 10843 10842 10840 10838 10836 10833 10830 10827 10824 10821 10818 10814 10811 10807 10804 10801 10797 10793 10790 10786 10783 10779 10775 10771 10768 10763 10759 10754 10749 10744 10740 10735 10731 10727 10723 10719 10715 10711 10707 10703 10699 10695 10690 10686 10682 10677 10670 10665 10663 10662 10662 10663 10665 10667 10668 10668 10671 10675 10679 10680
10897 10895 10895 10897 10896 10891 10887 10886 10886 10884 10881 10877 10873 10869 10867 10864 10862 10860 10859 10855 10852 10849 10846 10843 10840 10839 10837 10835 10833 10830 10826 10824 10821 10818 10815 10812 10808 10804 10800 10796 10792 10789 10785 10782 10778 10775 10771 10767 10764 10760 10756 10751 10746 10741 10737 10732 10727 10722 10717 10713 10710 10706 10702 10697 10693 10688 10684 10680 10675 10671 10667 10661 10655 10652 10651 10650 10651 10653 10656 10657 10657 10659 10664 10668 10669
10892 10889 10889 10889 10888 10885 10881 10881 10881 10880 10879 10876 10868 10862 10862 10860 10857 10855 10854 10852 10848 10844 10841 10839 10837 10835 10833 10829 10826 10823 10820 10817 10815 10812 10809 10805 10801 10796 10791 10787 10784 10780 10777 10774 10770 10767 10763 10759 10756 10753 10748 10744 10740 10734 10729 10724 10719 10713 10708 10704 10700 10696 10692 10687 10682 10678 10673 10669 10665 10660 10656 10651 10646 10642 10640 10640 10640 10641 10643 10646 10647 10648 10652 10656 10658
10885 10883 10882 10882 10881 10879 10875 10875 10875 10876 10879 10877 10865 10857 10857 10856 10853 10851 10850 10848 10844 10839 10837 10835 10833 10830 10827 10823 10819 10816 10813 10810 10808 10805 10801 10797 10793 10787 10782 10778 10775 10772 10769 10766 10763 10759 10755 10752 10749 10745 10741 10736 10731 10726 10721 10715 10710 10705 10700 10695 10691 10686 10682 10677 10672 10668 10663 10659 10654 10649 10646 10642 10636 10632 10630 10630 10631 10630 10632 10635 10637 10638 10641 10645 10647
10879 10877 10876 10875 10875 10872 10869 10868 10868 10869 10874 10875 10866 10858 10854 10850 10848 10847 10846 10844 10840 10834 10831 10829 10826 10822 10819 10815 10812 10809 10806 10803 10800 10796 10792 10789 10784 10778 10773 10770 10767 10765 10761 10758 10755 10751 10748 10744 10740 10735 10730 10725 10721 10716 10711 10705 10700 10696 10690 10685 10680 10676 10672 10667 10662 10657 10653 10649 10643 10638 10635 10632 10627 10622 10620 10621 10621 10620 10622 10625 10627 10628 10632 10636 10639
10871 10869 10869 10869 10868 10865 10862 10860 10860 10861 10863 10864 10862 10860 10856 10849 10845 10843 10840 10840 10836 10828 10824 10821 10817 10814 10811 10808 10805 10802 10799 10796 10792 10788 10784 10780 10776 10770 10765 10762 10759 10755 10752 10750 10746 10742 10740 10737 10732 10725 10720 10716 10711 10707 10702 10696 10690 10685 10680 10675 10670 10665 10661 10657 10652 10648 10643 10639 10634 10628 10624 10622 10618 10613 10610 10611 10612 10611 10612 10615 10617 10619 10623 10627 10630
10864 10863 10863 10863 10862 10859 10855 10853 10852 10852 10853 10853 10853 10854 10852 10846 10841 10837 10833 10832 10829 10822 10817 10813 10809 10807 10804 10801 10798 10794 10791 10788 10784 10780 10777 10773 10768 10763 10758 10754 10750 10746 10743 10741 10737 10734 10731 10728 10724 10719 10713 10708 10704 10698 10693 10687 10680 10674 10670 10665 10660 10656 10651 10646 10642 10638 10634 10630 10625 10619 10615 10612 10609 10605 10601 10600 10603 10603 10603 10605 10607 10611 10614 10617 10620
10857 10857 10858 10857 10855 10853 10849 10847 10846 10844 10844 10843 10843 10843 10843 10840 10837 10834 10828 10824 10820 10815 10810 10806 10803 10800 10797 10794 10790 10786 10783 10779 10776 10771 10768 10765 10761 10756 10751 10748 10743 10738 10734 10732 10730 10727 10724 10719 10715 10710 10705 10699 10694 10689 10683 10677 10671 10666 10660 10656 10651 10646 10641 10636 10631 10627 10624 10620 10616 10612 10607 10603 10600 10598 10593 10591 10593 10595 10596 10597 10598 10602 10606 10607 10610
10848 10850 10852 10851 10849 10846 10843 10840 10839 10837 10836 10834 10833 10834 10834 10832 10830 10829 10824 10817 10812 10807 10804 10800 10796 10793 10790 10786 10782 10779 10775 10771 10767 10762 10759 10757 10753 10748 10744 10741 10737 10731 10727 10725 10723 10720 10717 10712 10707 10701 10695 10689 10683 10678 10673 10668 10663 10658 10652 10647 10641 10636 10631 10626 10621 10617 10614 10611 10607 10604 10600 10595 10592 10589 10586 10584 10584 10586 10589 10589 10589 10593 10597 10597 10601
10839 10842 10843 10843 10841 10840 10837 10834 10832 10830 10828 10826 10824 10825 10825 10823 10821 10820 10815 10809 10805 10802 10799 10796 10791 10787 10783 10779 10775 10771 10766 10762 10758 10753 10750 10748 10744 10738 10735 10732 10728 10723 10718 10716 10714 10711 10708 10704 10699 10692 10686 10680 10674 10669 10664 10659 10654 10650 10644 10638 10632 10627 10621 10616 10611 10608 10604 10601 10599 10595 10592 10588 10583 10580 10579 10577 10576 10578 10580 10581 10582 10585 10587 10589 10591
10833 10834 10833 10833 10833 10831 10829 10826 10825 10824 10822 10818 10816 10816 10816 10814 10812 10810 10806 10802 10799 10796 10792 10789 10785 10781 10777 10772 10767 10763 10758 10752 10748 10744 10742 10739 10734 10729 10724 10721 10719 10715 10709 10706 10704 10702 10698 10694 10688 10683 10677 10671 10665 10659 10655 10650 10646 10641 10636 10630 10624 10618 10612 10607 10602 10598 10595 10592 10590 10587 10584 10581 10576 10572 10571 10570 10570 10571 10571 10572 10575 10577 10579 10580 10582
10827 10827 10825 10824 10823 10822 10820 10819 10818 10817 10814 10810 10808 10808 10808 10806 10804 10802 10798 10795 10792 10788 10785 10781 10777 10774 10770 10765 10760 10755 10749 10742 10738 10735 10732 10728 10724 10721 10716 10712 10712 10709 10704 10699 10696 10693 10689 10684 10679 10673 10667 10661 10656 10651 10646 10642 10637 10632 10627 10622 10616 10610 10604 10598 10593 10589 10586 10583 10581 10579 10576 10573 10568 10565 10563 10563 10564 10564 10563 10564 10567 10569 10571 10572 10573
10821 10821 10819 10816 10814 10813 10812 10811 10810 10809 10806 10801 10800 10800 10799 10798 10797 10794 10789 10786 10784 10781 10778 10774 10770 10766 10761 10756 10751 10747 10740 10734 10731 10728 10723 10717 10714 10712 10708 10705 10704 10700 10696 10692 10688 10682 10679 10674 10668 10662 10656 10651 10646 10642 10637 10632 10628 10623 10619 10613 10607 10601 10595 10590 10585 10580 10577 10573 10571 10570 10569 10566 10562 10558 10556 10556 10557 10557 10557 10557 10559 10561 10563 10564 10566
10815 10814 10812 10809 10806 10805 10804 10802 10801 10799 10796 10792 10791 10792 10791 10790 10788 10784 10781 10778 10776 10774 10771 10766 10762 10757 10752 10747 10743 10738 10732 10727 10723 10719 10713 10708 10705 10703 10700 10698 10695 10690 10685 10681 10677 10672 10668 10664 10658 10652 10647 10643 10638 10634 10629 10624 10619 10614 10610 10604 10599 10593 10587 10581 10577 10572 10568 10565 10562 10560 10560 10559 10555 10552 10550 10549 10550 10550 10551 10552 10552 10553 10554 10556 10558
10808 10807 10804 10801 10798 10797 10796 10794 10791 10790 10788 10784 10781 10782 10783 10782 10778 10775 10773 10770 10768 10765 10761 10757 10752 10747 10743 10739 10734 10729 10725 10720 10715 10709 10703 10700 10698 10696 10693 10691 10687 10682 10676 10671 10667 10662 10658 10653 10648 10643 10639 10635 10630 10626 10620 10615 10610 10605 10600 10595 10590 10584 10579 10573 10569 10564 10561 10557 10554 10552 10551 10551 10548 10547 10545 10544 10543 10544 10545 10546 10546 10547 10547 10549 10550
10801 10799 10796 10793 10791 10789 10786 10784 10782 10781 10780 10776 10772 10771 10773 10772 10768 10766 10764 10761 10759 10755 10752 10748 10743 10739 10735 10730 10724 10721 10718 10712 10707 10703 10698 10694 10691 10688 10685 10681 10677 10672 10667 10661 10657 10652 10647 10642 10637 10633 10629 10625 10621 10616 10611 10606 10601 10596 10591 10585 10580 10575 10571 10566 10561 10556 10553 10550 10546 10544 10543 10542 10541 10540 10540 10538 10537 10538 10538 10539 10540 10540 10541 10542 10543
10793 10791 10788 10785 10783 10780 10777 10775 10774 10772 10771 10768 10764 10762 10763 10761 10758 10755 10754 10751 10748 10745 10742 10739 10735 10730 10727 10722 10714 10711 10709 10704 10699 10696 10693 10688 10683 10678 10674 10670 10665 10660 10655 10650 10645 10641 10636 10632 10628 10624 10620 10615 10610 10606 10601 10596 10591 10586 10581 10575 10570 10566 10562 10557 10553 10548 10545 10542 10539 10537 10535 10534 10534 10534 10534 10533 10532 10532 10532 10533 10534 10534 10535 10536 10537
10784 10781 10779 10777 10775 10772 10768 10766 10764 10762 10761 10759 10756 10754 10754 10751 10747 10745 10742 10739 10736 10733 10731 10728 10725 10721 10718 10713 10706 10702 10699 10695 10692 10689 10685 10680 10675 10670 10665 10660 10654 10649 10644 10639 10635 10631 10627 10623 10619 10615 10610 10605 10601 10596 10591 10586 10581 10576 10571 10566 10561 10557 10553 10548 10544 10540 10537 10534 10531 10529 10528 10527 10526 10527 10527 10527 10526 10526 10527 10528 10528 10529 10529 10531 10532
10774 10771 10769 10767 10766 10763 10760 10757 10754 10752 10750 10747 10745 10744 10742 10740 10737 10735 10733 10730 10727 10724 10721 10719 10716 10712 10709 10704 10699 10694 10690 10687 10684 10680 10675 10671 10667 10662 10657 10652 10647 10642 10637 10633 10629 10625 10619 10615 10610 10606 10601 10596 10591 10586 10581 10576 10570 10565 10561 10557 10552 10548 10543 10539 10535 10532 10529 10526 10523 10522 10521 10521 10520 10520 10521 10521 10521 10521 10521 10522 10523 10524 10524 10525 10527
10764 10762 10760 10758 10755 10752 10749 10746 10744 10741 10739 10736 10733 10732 10730 10728 10726 10725 10723 10721 10718 10715 10712 10710 10706 10702 10699 10695 10691 10687 10683 10679 10676 10673 10668 10664 10659 10655 10650 10646 10641 10636 10631 10627 10622 10617 10611 10606 10601 10596 10591 10586 10581 10576 10571 10566 10561 10556 10551 10547 10543 10538 10534 10530 10526 10523 10520 10518 10516 10515 10514 10514 10514 10514 10514 10515 10515 10515 10516 10517 10518 10519 10519 10520 10521
10755 10754 10751 10748 10745 10742 10739 10736 10734 10732 10729 10726 10723 10722 10720 10718 10716 10714 10713 10710 10707 10703 10702 10700 10697 10693 10690 10687 10683 10680 10676 10672 10668 10665 10661 10657 10652 10648 10643 10639 10634 10629 10624 10619 10614 10608 10603 10598 10592 10587 10581 10576 10571 10565 10560 10555 10550 10546 10542 10537 10533 10529 10525 10521 10518 10515 10512 10510 10509 10508 10508 10508 10508 10508 10509 10509 10510 10510 10511 10512 10513 10514 10514 10515 10516
10747 10745 10742 10739 10736 10733 10729 10727 10725 10722 10720 10717 10714 10712 10710 10707 10705 10704 10701 10698 10695 10693 10691 10690 10688 10685 10681 10678 10675 10672 10668 10663 10659 10655 10652 10648 10643 10639 10634 10629 10624 10619 10614 10609 10604 10599 10594 10588 10582 10577 10571 10565 10560 10554 10549 10544 10540 10536 10532 10528 10524 10521 10516 10513 10510 10508 10505 10503 10502 10502 10502 10502 10502 10502 10503 10504 10504 10505 10506 10508 10509 10510 10510 10510 10511
10738 10735 10733 10730 10727 10724 10721 10718 10716 10713 10711 10708 10704 10702 10700 10697 10695 10694 10691 10687 10685 10683 10681 10679 10678 10675 10672 10668 10666 10663 10659 10654 10649 10644 10640 10636 10632 10628 10623 10618 10614 10609 10604 10599 10595 10590 10584 10578 10572 10566 10560 10554 10549 10544 10539 10534 10530 10526 10522 10519 10515 10512 10508 10505 10503 10501 10499 10497 10496 10496 10496 10496 10496 10497 10498 10499 10499 10500 10502 10503 10504 10505 10506 10506 10507
10728 10726 10723 10721 10718 10715 10712 10709 10706 10704 10701 10699 10696 10694 10690 10687 10686 10685 10681 10678 10676 10674 10672 10670 10667 10665 10662 10659 10655 10652 10649 10644 10639 10634 10629 10625 10620 10616 10612 10607 10603 10598 10594 10589 10585 10580 10574 10567 10561 10555 10549 10544 10538 10534 10529 10525 10520 10516 10513 10510 10506 10503 10499 10497 10496 10494 10492 10491 10490 10490 10490 10490 10490 10491 10492 10494 10494 10495 10497 10499 10500 10501 10502 10503 10504
10718 10716 10714 10711 10708 10705 10703 10700 10697 10694 10692 10690 10687 10685 10681 10677 10675 10674 10672 10669 10666 10664 10662 10660 10656 10653 10651 10648 10644 10641 10637 10634 10629 10624 10619 10614 10610 10605 10601 10597 10592 10588 10584 10579 10575 10569 10563 10556 10550 10544 10538 10533 10528 10524 10519 10515 10510 10507 10504 10501 10498 10494 10492 10490 10489 10487 10486 10485 10484 10484 10484 10485 10485 10486 10487 10489 10490 10491 10493 10495 10496 10497 10498 10499 10500
10709 10706 10703 10701 10699 10696 10693 10691 10688 10686 10683 10681 10678 10675 10672 10668 10664 10662 10659 10657 10655 10652 10650 10648 10645 10642 10639 10636 10632 10629 10626 10622 10618 10613 10608 10604 10599 10595 10590 10586 10582 10578 10574 10569 10564 10558 10551 10544 10538 10532 10527 10523 10518 10513 10509 10505 10501 10498 10495 10492 10489 10487 10485 10483 10482 10480 10479 10479 10478 10478 10479 10479 10480 10481 10482 10484 10485 10486 10488 10490 10492 10494 10495 10496 10497
10698 10695 10693 10691 10688 10686 10684 10681 10679 10676 10674 10671 10669 10666 10663 10659 10655 10651 10648 10646 10644 10641 10638 10635 10632 10629 10626 10623 10620 10617 10614 10610 10606 10602 10597 10593 10589 10584 10580 10576 10572 10567 10563 10558 10553 10546 10539 10533 10527 10522 10517 10512 10508 10504 10499 10496 10492 10489 10486 10484 10482 10480 10478 10477 10475 10474 10473 10472 10472 10473 10473 10474 10474 10476 10478 10480 10481 10482 10484 10486 10488 10490 10492 10493 10494
10687 10684 10682 10679 10677 10675 10673 10670 10668 10666 10663 10661 10658 10655 10652 10649 10645 10642 10638 10636 10633 10630 10626 10623 10620 10618 10615 10612 10609 10607 10603 10599 10595 10591 10587 10583 10579 10574 10569 10565 10561 10557 10552 10547 10541 10534 10528 10522 10516 10511 10507 10502 10498 10494 10490 10487 10483 10481 10478 10476 10475 10473 10472 10470 10469 10468 10467 10466 10466 10467 10468 10469 10469 10471 10473 10476 10477 10478 10480 10483 10485 10487 10488 10490 10491
10676 10673 10670 10668 10665 10663 10661 10658 10657 10654 10652 10649 10646 10643 10640 10637 10634 10631 10628 10626 10623 10619 10616 10613 10610 10607 10605 10602 10599 10596 10592 10589 10585 10581 10578 10574 10569 10564 10559 10554 10550 10546 10541 10536 10529 10523 10517 10511 10506 10501 10496 10493 10489 10486 10482 10478 10475 10473 10471 10469 10468 10466 10465 10463 10462 10461 10461 10461 10461 10462 10463 10463 10464 10466 10469 10471 10473 10474 10476 10479 10481 10483 10485 10487 10488
10664 10661 10658 10656 10654 10652 10649 10647 10646 10643 10640 10638 10635 10632 10629 10626 10623 10620 10617 10615 10612 10609 10605 10602 10600 10597 10594 10591 10588 10585 10582 10579 10576 10572 10568 10563 10558 10553 10548 10544 10540 10535 10530 10524 10517 10511 10505 10500 10495 10490 10486 10483 10480 10477 10474 10471 10468 10466 10464 10463 10461 10459 10458 10457 10456 10455 10455 10455 10455 10456 10457 10458 10459 10461 10464 10467 10469 10470 10472 10475 10477 10479 10481 10483 10485
10652 10648 10645 10644 10642 10640 10637 10635 10633 10631 10628 10626 10623 10621 10618 10616 10613 10609 10607 10604 10601 10598 10595 10592 10589 10586 10583 10581 10578 10574 10572 10569 10565 10561 10557 10553 10548 10542 10537 10532 10528 10523 10518 10512 10506 10500 10494 10489 10485 10481 10477 10474 10472 10469 10466 10463 10461 10459 10458 10456 10454 10453 10451 10451 10450 10450 10449 10449 10450 10451 10452 10453 10455 10456 10460 10463 10465 10467 10469 10471 10473 10475 10478 10480 10482
10641 10637 10634 10633 10631 10629 10626 10623 10620 10618 10616 10614 10611 10609 10607 10605 10602 10598 10595 10592 10590 10587 10584 10581 10579 10576 10573 10570 10567 10564 10561 10558 10555 10550 10546 10542 10537 10531 10525 10520 10516 10511 10505 10500 10495 10489 10483 10479 10475 10472 10469 10466 10464 10461 10458 10456 10454 10452 10451 10449 10448 10446 10445 10445 10445 10444 10444 10444 10445 10446 10447 10448 10450 10452 10455 10458 10461 10463 10465 10467 10469 10472 10474 10477 10479
10631 10628 10625 10623 10620 10618 10616 10613 10611 10608 10606 10604 10601 10598 10596 10593 10590 10587 10584 10581 10579 10576 10574 10571 10568 10566 10563 10560 10557 10553 10550 10547 10543 10539 10534 10530 10524 10519 10514 10509 10504 10499 10494 10489 10484 10479 10474 10470 10466 10463 10461 10459 10456 10454 10451 10449 10447 10446 10444 10443 10441 10440 10439 10439 10439 10439 10439 10439 10440 10441 10442 10443 10445 10447 10450 10454 10457 10459 10461 10463 10466 10468 10471 10474 10476
10620 10618 10615 10612 10609 10607 10605 10602 10600 10598 10595 10593 10590 10587 10585 10582 10579 10577 10574 10571 10569 10566 10564 10561 10558 10556 10553 10550 10546 10542 10539 10535 10531 10526 10522 10517 10512 10507 10502 10498 10493 10488 10484 10480 10475 10471 10466 10462 10458 10455 10453 10451 10449 10447 10444 10443 10441 10440 10438 10437 10435 10434 10433 10433 10433 10433 10434 10434 10435 10436 10437 10438 10440 10442 10445 10449 10452 10455 10457 10460 10462 10464 10467 10470 10473
10608 10605 10602 10600 10598 10596 10593 10591 10588 10585 10583 10581 10579 10576 10574 10571 10569 10566 10564 10561 10559 10556 10553 10550 10548 10545 10542 10538 10535 10531 10527 10523 10519 10514 10510 10506 10501 10496 10491 10487 10482 10478 10474 10471 10467 10463 10459 10454 10451 10448 10446 10444 10442 10440 10438 10437 10435 10434 10432 10431 10430 10429 10428 10427 10427 10427 10428 10429 10429 10431 10432 10433 10435 10437 10440 10444 10447 10451 10453 10456 10458 10461 10464 10467 10469
10596 10593 10590 10588 10586 10584 10582 10579 10576 10574 10572 10570 10568 10566 10563 10561 10559 10556 10554 10552 10549 10546 10542 10539 10537 10534 10530 10526 10523 10519 10515 10511 10507 10503 10498 10494 10490 10485 10481 10477 10473 10469 10466 10462 10459 10456 10452 10448 10444 10442 10439 10437 10435 10434 10432 10431 10429 10428 10427 10426 10424 10423 10423 10422 10421 10421 10422 10423 10424 10425 10427 10428 10430 10432 10435 10439 10442 10446 10449 10452 10454 10457 10460 10463 10466
10585 10583 10581 10578 10575 10573 10570 10568 10566 10564 10562 10560 10557 10555 10553 10551 10548 10546 10544 10541 10537 10534 10531 10528 10525 10521 10518 10514 10511 10507 10503 10499 10495 10491 10487 10483 10479 10475 10471 10468 10464 10461 10457 10454 10451 10448 10445 10442 10439 10437 10434 10432 10430 10428 10427 10425 10424 10423 10421 10420 10419 10418 10417 10417 10416 10416 10417 10418 10419 10420 10421 10423 10425 10427 10430 10433 10437 10441 10445 10448 10451 10453 10456 10459 10462
10575 10574 10571 10569 10566 10563 10561 10558 10556 10554 10552 10550 10547 10544 10542 10540 10538 10536 10533 10529 10526 10522 10519 10516 10512 10508 10504 10501 10499 10495 10491 10487 10484 10480 10477 10473 10469 10466 10463 10460 10457 10453 10450 10447 10444 10441 10439 10436 10433 10431 10429 10427 10424 10423 10421 10420 10418 10417 10416 10415 10414 10413 10413 10412 10411 10411 10411 10412 10414 10415 10416 10418 10420 10423 10425 10428 10432 10436 10440 10443 10446 10449 10452 10455 10458
10565 10564 10562 10559 10556 10554 10552 10550 10547 10545 10542 10539 10536 10534 10531 10528 10525 10523 10520 10516 10512 10508 10505 10502 10498 10494 10491 10488 10486 10483 10480 10476 10473 10470 10467 10464 10460 10457 10455 10452 10450 10447 10444 10440 10437 10435 10432 10430 10428 10426 10424 10422 10420 10418 10417 10415 10414 10412 10411 10410 10409 10409 10408 10408 10407 10406 10407 10408 10409 10410 10411 10413 10415 10418 10420 10423 10427 10431 10435 10439 10442 10445 10448 10451 10454
10554 10553 10550 10547 10545 10543 10540 10538 10535 10533 10530 10528 10525 10522 10519 10515 10512 10508 10505 10501 10498 10494 10491 10488 10485 10482 10479 10476 10474 10472 10469 10466 10463 10461 10458 10455 10452 10449 10447 10445 10443 10440 10438 10435 10432 10429 10426 10424 10423 10421 10419 10417 10415 10414 10412 10411 10409 10408 10407 10406 10405 10405 10404 10404 10403 10403 10403 10403 10404 10405 10407 10408 10410 10413 10415 10418 10421 10426 10431 10435 10438 10441 10444 10447 10451
10543 10541 10539 10536 10534 10531 10527 10524 10521 10518 10516 10513 10510 10508 10505 10501 10497 10494 10491 10488 10485 10482 10479 10477 10474 10471 10468 10466 10464 10461 10459 10456 10454 10451 10449 10446 10443 10441 10439 10437 10435 10433 10431 10430 10427 10424 10421 10419 10417 10416 10414 10412 10410 10409 10408 10406 10405 10404 10403 10402 10401 10401 10400 10400 10400 10400 10399 10400 10400 10401 10402 10404 10406 10408 10411 10413 10416 10421 10425 10430 10433 10437 10440 10443 10447
10535 10532 10530 10527 10524 10520 10517 10514 10510 10507 10503 10500 10496 10493 10490 10487 10484 10482 10479 10476 10473 10470 10468 10466 10463 10461 10459 10457 10455 10452 10450 10447 10445 10442 10440 10437 10435 10434 10432 10430 10427 10425 10424 10423 10421 10418 10416 10414 10413 10411 10410 10407 10406 10404 10403 10402 10401 10401 10400 10399 10398 10397 10397 10397 10397 10397 10396 10396 10396 10397 10398 10399 10401 10404 10406 10409 10412 10416 10420 10425 10429 10432 10436 10439 10443
10526 10522 10519 10516 10512 10509 10506 10503 10499 10496 10492 10488 10484 10481 10477 10475 10473 10470 10468 10465 10463 10460 10458 10456 10454 10452 10450 10448 10446 10444 10442 10439 10437 10435 10432 10430 10428 10427 10425 10423 10420 10418 10416 10415 10413 10411 10410 10409 10408 10407 10405 10403 10401 10400 10399 10398 10398 10397 10396 10395 10395 10394 10393 10393 10393 10394 10393 10393 10393 10394 10395 10396 10397 10399 10402 10405 10407 10411 10415 10420 10424 10428 10431 10435 10439
10515 10511 10507 10504 10501 10497 10494 10491 10487 10483 10479 10476 10472 10469 10467 10464 10462 10460 10458 10455 10453 10451 10450 10448 10446 10444 10442 10440 10438 10436 10434 10432 10429 10427 10424 10422 10420 10419 10418 10416 10413 10411 10409 10407 10406 10404 10403 10403 10402 10401 10400 10398 10396 10395 10394 10394 10393 10393 10392 10392 10391 10390 10390 10390 10390 10390 10390 10390 10391 10391 10392 10393 10394 10395 10397 10400 10402 10406 10410 10415 10419 10423 10427 10430 10435
10503 10499 10496 10492 10489 10485 10481 10478 10474 10471 10467 10464 10462 10459 10457 10455 10453 10451 10448 10446 10444 10442 10441 10440 10438 10436 10435 10432 10430 10428 10426 10424 10421 10419 10416 10414 10413 10412 10411 10409 10407 10405 10402 10400 10399 10398 10397 10397 10396 10395 10394 10392 10391 10390 10389 10389 10389 10388 10388 10388 10387 10387 10387 10387 10387 10387 10387 10388 10388 10389 10389 10389 10390 10391 10393 10395 10398 10401 10404 10409 10413 10418 10422 10426 10430